| time (UTC) | temp F | wind direction | speed MPH | gust MPH | rain 1hr in | rain 24hr in | rain mn in | humidity % | barometer mb |
| 20260901191502 | 71 | 179 | 2.0 | 11.0 | 0.00 | 0.00 | 0.00 | 57 | 1018.1 |
| 20260901190058 | 70 | 116 | 2.0 | 12.0 | 0.00 | 0.00 | 0.00 | 59 | 1018.1 |
| 20260901184604 | 71 | 55 | 2.0 | 8.0 | 0.00 | 0.00 | 0.00 | 58 | 1018.2 |
| 20260901183103 | 70 | 134 | 4.0 | 11.0 | 0.00 | 0.00 | 0.00 | 59 | 1018.2 |
| 20260901181543 | 70 | 81 | 5.0 | 9.0 | 0.00 | 0.00 | 0.00 | 59 | 1018.2 |
| 20260901180040 | 69 | 76 | 6.0 | 11.0 | 0.00 | 0.00 | 0.00 | 58 | 1018.1 |
| 20260901174535 | 68 | 108 | 4.0 | 10.0 | 0.00 | 0.00 | 0.00 | 59 | 1017.9 |
| 20260901173037 | 68 | 74 | 5.0 | 10.0 | 0.00 | 0.00 | 0.00 | 60 | 1017.8 |
| 20260901171525 | 69 | 117 | 3.0 | 10.0 | 0.00 | 0.00 | 0.00 | 60 | 1017.7 |
| 20260901170021 | 67 | 52 | 5.0 | 10.0 | 0.00 | 0.00 | 0.00 | 61 | 1017.8 |
| 20260901164516 | 66 | 96 | 4.0 | 9.0 | 0.00 | 0.00 | 0.00 | 62 | 1017.9 |
| 20260901163012 | 65 | 115 | 4.0 | 9.0 | 0.00 | 0.00 | 0.00 | 62 | 1018.3 |
| 20260901161508 | 65 | 93 | 4.0 | 10.0 | 0.00 | 0.00 | 0.00 | 63 | 1018.2 |
| 20260901160003 | 64 | 113 | 5.0 | 11.0 | 0.00 | 0.00 | 0.00 | 62 | 1018.1 |
| 20260901154618 | 64 | 56 | 6.0 | 9.0 | 0.00 | 0.00 | 0.00 | 63 | 1018.2 |
| 20260901153103 | 63 | 138 | 2.0 | 8.0 | 0.00 | 0.00 | 0.00 | 64 | 1018.4 |
| 20260901151550 | 63 | 80 | 5.0 | 10.0 | 0.00 | 0.00 | 0.00 | 64 | 1018.5 |
| 20260901150055 | 63 | 121 | 5.0 | 10.0 | 0.00 | 0.00 | 0.00 | 63 | 1018.5 |
| 20260901144543 | 62 | 90 | 6.0 | 11.0 | 0.00 | 0.00 | 0.00 | 64 | 1018.2 |
| 20260901143039 | 62 | 103 | 6.0 | 12.0 | 0.00 | 0.00 | 0.00 | 64 | 1017.8 |
| 20260901141532 | 62 | 86 | 5.0 | 11.0 | 0.00 | 0.00 | 0.00 | 64 | 1017.9 |
| 20260901140028 | 61 | 94 | 3.0 | 7.0 | 0.00 | 0.00 | 0.00 | 63 | 1018.1 |
| 20260901134524 | 61 | 114 | 3.0 | 9.0 | 0.00 | 0.00 | 0.00 | 63 | 1018.2 |
| 20260901133021 | 60 | 88 | 3.0 | 8.0 | 0.00 | 0.00 | 0.00 | 63 | 1018.5 |
| 20260901131519 | 60 | 138 | 3.0 | 7.0 | 0.00 | 0.00 | 0.00 | 61 | 1018.5 |
| 20260901130013 | 60 | 122 | 3.0 | 7.0 | 0.00 | 0.00 | 0.00 | 60 | 1018.8 |
| 20260901124521 | 60 | 135 | 2.0 | 4.0 | 0.00 | 0.00 | 0.00 | 59 | 1018.6 |
| 20260901123003 | 61 | 99 | 0.0 | 3.0 | 0.00 | 0.00 | 0.00 | 62 | 1018.9 |
| 20260901121605 | 61 | 98 | 1.0 | 3.0 | 0.00 | 0.00 | 0.00 | 63 | 1018.9 |
| 20260901120109 | 61 | 122 | 2.0 | 8.0 | 0.00 | 0.00 | 0.00 | 64 | 1018.6 |
| 20260901114552 | 61 | 157 | 3.0 | 6.0 | 0.00 | 0.00 | 0.00 | 62 | 1018.6 |
| 20260901113055 | 61 | 109 | 4.0 | 9.0 | 0.00 | 0.00 | 0.00 | 63 | 1018.5 |
| 20260901111541 | 61 | 137 | 3.0 | 8.0 | 0.00 | 0.00 | 0.00 | 64 | 1018.3 |
| 20260901110047 | 61 | 105 | 2.0 | 9.0 | 0.00 | 0.00 | 0.00 | 64 | 1018.2 |
| 20260901104531 | 61 | 125 | 3.0 | 9.0 | 0.00 | 0.00 | 0.00 | 63 | 1017.9 |
| 20260901103030 | 61 | 111 | 3.0 | 9.0 | 0.00 | 0.00 | 0.00 | 63 | 1017.7 |
| 20260901101525 | 61 | 121 | 3.0 | 5.0 | 0.00 | 0.00 | 0.00 | 63 | 1017.6 |
| 20260901100018 | 61 | 136 | 3.0 | 8.0 | 0.00 | 0.00 | 0.00 | 62 | 1017.7 |
| 20260901094520 | 61 | 96 | 3.0 | 6.0 | 0.00 | 0.00 | 0.00 | 60 | 1017.6 |
| 20260901093010 | 62 | 111 | 3.0 | 9.0 | 0.00 | 0.00 | 0.00 | 59 | 1017.6 |
| 20260901091507 | 61 | 74 | 4.0 | 9.0 | 0.00 | 0.00 | 0.00 | 59 | 1017.5 |
| 20260901090006 | 61 | 82 | 4.0 | 9.0 | 0.00 | 0.00 | 0.00 | 55 | 1017.8 |
| 20260901084606 | 60 | 112 | 0.0 | 3.0 | 0.00 | 0.00 | 0.00 | 15 | 1017.7 |
| 20260901083102 | 60 | 111 | 2.0 | 6.0 | 0.00 | 0.00 | 0.00 | 1 | 1017.7 |
| 20260901081547 | 61 | 110 | 1.0 | 4.0 | 0.00 | 0.00 | 0.00 | 1 | 1017.9 |
| 20260901080055 | 62 | 111 | 2.0 | 6.0 | 0.00 | 0.00 | 0.00 | 5 | 1017.8 |
| 20260901074540 | 62 | 113 | 1.0 | 3.0 | 0.00 | 0.00 | 0.00 | 46 | 1017.8 |
| 20260901073038 | 62 | 113 | 2.0 | 4.0 | 0.00 | 0.00 | 0.00 | 31 | 1017.8 |
| 20260901071537 | 62 | 113 | 2.0 | 4.0 | 0.00 | 0.00 | 0.00 | 39 | 1018.0 |
| 20260901070040 | 62 | 95 | 3.0 | 5.0 | 0.00 | 0.00 | 0.00 | 63 | 1017.7 |
| 20260901064536 | 62 | 57 | 0.0 | 2.0 | 0.00 | 0.00 | 0.00 | 63 | 1018.3 |
| 20260901063046 | 62 | 57 | 2.0 | 3.0 | 0.00 | 0.00 | 0.00 | 63 | 1018.2 |
| 20260901061529 | 63 | 55 | 0.0 | 2.0 | 0.00 | 0.00 | 0.00 | 62 | 1018.2 |
| 20260901060026 | 64 | 55 | 2.0 | 4.0 | 0.00 | 0.00 | 0.00 | 53 | 1018.2 |
| 20260901054523 | 64 | 55 | 2.0 | 4.0 | 0.00 | 0.00 | 0.00 | 61 | 1018.3 |
| 20260901053021 | 64 | 52 | 3.0 | 4.0 | 0.00 | 0.00 | 0.00 | 62 | 1018.3 |
| 20260901051522 | 64 | 348 | 1.0 | 3.0 | 0.00 | 0.00 | 0.00 | 61 | 1018.5 |
| 20260901050020 | 64 | 348 | 2.0 | 4.0 | 0.00 | 0.00 | 0.00 | 58 | 1018.6 |
| 20260901044524 | 65 | 341 | 0.0 | 2.0 | 0.00 | 0.00 | 0.00 | 59 | 1018.3 |
| 20260901043016 | 65 | 338 | 1.0 | 4.0 | 0.00 | 0.00 | 0.00 | 59 | 1018.3 |
| 20260901041525 | 65 | 329 | 0.0 | 4.0 | 0.00 | 0.00 | 0.00 | 59 | 1018.2 |
| 20260901040012 | 65 | 302 | 1.0 | 2.0 | 0.00 | 0.00 | 0.00 | 58 | 1018.3 |
| 20260901034521 | 65 | 302 | 0.0 | 3.0 | 0.00 | 0.00 | 0.00 | 62 | 1018.3 |
| 20260901033006 | 66 | 300 | 0.0 | 0.0 | 0.00 | 0.00 | 0.00 | 63 | 1018.3 |
| 20260901031507 | 66 | 300 | 0.0 | 1.0 | 0.00 | 0.00 | 0.00 | 62 | 1018.2 |
| 20260901030004 | 67 | 300 | 0.0 | 2.0 | 0.00 | 0.00 | 0.00 | 62 | 1018.3 |
| 20260901024504 | 67 | 300 | 1.0 | 3.0 | 0.00 | 0.00 | 0.00 | 61 | 1018.3 |
| 20260901023003 | 67 | 299 | 0.0 | 2.0 | 0.00 | 0.00 | 0.00 | 61 | 1018.3 |
| 20260901021503 | 67 | 299 | 0.0 | 2.0 | 0.00 | 0.00 | 0.00 | 60 | 1018.2 |
| 20260901014601 | 67 | 298 | 1.0 | 2.0 | 0.00 | 0.04 | 0.00 | 60 | 1018.2 |
| 20260901013119 | 67 | 298 | 0.0 | 1.0 | 0.00 | 0.04 | 0.00 | 60 | 1018.3 |
| 20260901011559 | 67 | 298 | 0.0 | 3.0 | 0.00 | 0.04 | 0.00 | 60 | 1018.3 |
| 20260901010101 | 67 | 298 | 1.0 | 2.0 | 0.00 | 0.04 | 0.00 | 60 | 1018.5 |
| 20260901004552 | 67 | 298 | 1.0 | 3.0 | 0.00 | 0.09 | 0.00 | 59 | 1018.4 |
| 20260901003047 | 68 | 298 | 0.0 | 2.0 | 0.00 | 0.09 | 0.00 | 59 | 1018.3 |
| 20260901001543 | 68 | 298 | 1.0 | 3.0 | 0.00 | 0.09 | 0.00 | 58 | 1018.2 |
| 20260901000039 | 69 | 298 | 0.0 | 2.0 | 0.00 | 0.09 | 0.00 | 58 | 1018.2 |
| 20260831234537 | 69 | 298 | 0.0 | 2.0 | 0.00 | 0.09 | 0.00 | 56 | 1018.1 |
| 20260831233029 | 70 | 298 | 1.0 | 3.0 | 0.00 | 0.09 | 0.00 | 55 | 1018.2 |
| 20260831231525 | 71 | 298 | 2.0 | 4.0 | 0.00 | 0.09 | 0.00 | 54 | 1018.5 |
| 20260831230020 | 71 | 299 | 2.0 | 5.0 | 0.00 | 0.09 | 0.00 | 53 | 1018.7 |
| 20260831224516 | 72 | 301 | 3.0 | 8.0 | 0.00 | 0.09 | 0.00 | 51 | 1018.6 |
| 20260831223018 | 73 | 311 | 4.0 | 10.0 | 0.00 | 0.09 | 0.00 | 49 | 1018.5 |
| 20260831221511 | 74 | 319 | 5.0 | 9.0 | 0.00 | 0.09 | 0.00 | 47 | 1018.6 |
| 20260831220007 | 74 | 289 | 5.0 | 11.0 | 0.00 | 0.09 | 0.00 | 46 | 1018.6 |
| 20260831214502 | 74 | 304 | 4.0 | 10.0 | 0.00 | 0.09 | 0.00 | 44 | 1018.5 |
| 20260831213102 | 75 | 319 | 8.0 | 12.0 | 0.00 | 0.09 | 0.00 | 42 | 1018.4 |
| 20260831211553 | 75 | 304 | 6.0 | 11.0 | 0.00 | 0.09 | 0.00 | 41 | 1018.5 |
| 20260831210048 | 75 | 315 | 8.0 | 14.0 | 0.00 | 0.09 | 0.00 | 40 | 1018.6 |
| 20260831204548 | 75 | 300 | 8.0 | 14.0 | 0.00 | 0.09 | 0.00 | 43 | 1018.7 |
| 20260831203039 | 74 | 315 | 8.0 | 15.0 | 0.00 | 0.09 | 0.00 | 46 | 1018.7 |
| 20260831201535 | 76 | 281 | 9.0 | 17.0 | 0.00 | 0.09 | 0.00 | 44 | 1018.8 |
| 20260831200032 | 76 | 309 | 6.0 | 11.0 | 0.00 | 0.09 | 0.00 | 45 | 1018.9 |
| 20260831194529 | 75 | 340 | 4.0 | 11.0 | 0.00 | 0.09 | 0.00 | 45 | 1018.8 |
| 20260831193030 | 75 | 325 | 6.0 | 9.0 | 0.00 | 0.09 | 0.00 | 45 | 1019.1 |